Hourly Data Report for October 29, 2014

All times are specified in Local Standard Time (LST). Add 1 hour to adjust for Daylight Saving Time where and when it is observed.

KUGAARUK CLIMATE
NUNAVUT

68°32'15.060" N
89°47'47.020" W
15.80 m
2303094
71407
NBB

Download Data

Hourly Data (October 2014)
Hourly Data Report for October 29, 2014
Temp Definition
°C
Dew Point Temp Definition
°C
Rel Hum Definition
%
Wind Dir Definition
10's deg

Wind Spd Definition
km/h
Visibility Definition
km
Stn Press Definition
kPa
Hmdx Definition


Wind Chill Definition


Weather Definition


TIME
00:00 -12.9 -14.9 85 26 19   101.44   -21 LegendNANA
01:00 -12.4 -14.6 84 28 18   101.43   -20 LegendNANA
02:00 -12.2 -14.3 84 28 14   101.43   -19 LegendNANA
03:00 -12.4 -14.8 82 28 18   101.43   -20 LegendNANA
04:00 -12.6 -15.3 80 28 20   101.40   -21 LegendNANA
05:00 -12.8 -15.1 83 27 10   101.42   -19 LegendNANA
06:00 -12.7 -14.9 84 25 16   101.38   -20 LegendNANA
07:00 -12.1 -14.4 83 28 18   101.38   -20 LegendNANA
08:00 -12.8 -15.2 82 27 27   101.36   -23 LegendNANA
09:00 -14.3 -16.5 83 26 28   101.40   -25 LegendNANA
10:00 -14.5 -16.8 83 24 27   101.42   -25 LegendNANA
11:00 -14.2 -16.8 81 29 29   101.42   -25 LegendNANA
12:00 -14.3 -16.9 80 28 25   101.48   -24 LegendNANA
13:00 -14.5 -16.9 82 29 35   101.48   -26 LegendNANA
14:00 -15.0 -17.7 80 28 34   101.51   -27 LegendNANA
15:00 -16.1 -18.5 82 23 12   101.61   -23 LegendNANA
16:00 -16.0 -18.7 80 26 16   101.65   -24 LegendNANA
17:00 -16.2 -18.7 81 25 19   101.66   -25 LegendNANA
18:00 -17.2 -19.8 80 23 13   101.68   -25 LegendNANA
19:00 -14.8 -17.3 81 24 28   101.65   -25 LegendNANA
20:00 -14.6 -17.5 79 26 29   101.68   -25 LegendNANA
21:00 -14.7 -17.2 81 24 33   101.65   -26 LegendNANA
22:00 -14.7 -17.2 81 25 26   101.66   -25 LegendNANA
23:00 -14.7 -17.2 81 25 29   101.68   -25 LegendNANA

Notes on Data Quality.

Legend

  • E = Estimated
  • M = Missing
  • NA = Not Available
  • ‡ = Partner data that is not subject to review by the National Climate Archives
Date modified: